TimeMST,TemperatureF,Dew PointF,Humidity,Sea Level PressureIn,VisibilityMPH,Wind Direction,Wind SpeedMPH,Gust SpeedMPH,PrecipitationIn,Events,Conditions,WindDirDegrees,DateUTC
12:53 AM,10.9,3.9,73,30.45,10.0,South,6.9,-,N/A,,Clear,190,2013-01-09 07:53:00
1:53 AM,8.1,1.9,76,30.42,10.0,SSW,3.5,-,N/A,,Clear,210,2013-01-09 08:53:00
2:53 AM,6.1,-0.0,76,30.45,10.0,SSW,3.5,-,N/A,,Clear,210,2013-01-09 09:53:00
3:53 AM,10.9,3.0,70,30.43,10.0,South,5.8,-,N/A,,Clear,170,2013-01-09 10:53:00
4:53 AM,6.1,-0.0,76,30.47,10.0,Calm,Calm,-,N/A,,Clear,0,2013-01-09 11:53:00
5:53 AM,8.1,1.9,76,30.51,10.0,South,6.9,-,N/A,,Clear,170,2013-01-09 12:53:00
6:53 AM,6.1,-0.0,76,30.52,10.0,South,8.1,-,N/A,,Clear,190,2013-01-09 13:53:00
7:53 AM,8.1,1.0,73,30.53,10.0,South,5.8,-,N/A,,Clear,180,2013-01-09 14:53:00
8:53 AM,12.9,6.1,74,30.51,10.0,SSE,3.5,-,N/A,,Clear,160,2013-01-09 15:53:00
9:53 AM,19.0,10.0,68,30.49,10.0,Calm,Calm,-,N/A,,Clear,0,2013-01-09 16:53:00
10:53 AM,24.1,9.0,53,30.45,10.0,NNW,6.9,-,N/A,,Clear,330,2013-01-09 17:53:00
11:53 AM,27.0,10.9,51,30.38,10.0,NNW,8.1,-,N/A,,Clear,330,2013-01-09 18:53:00
12:53 PM,32.0,12.9,45,30.33,10.0,North,4.6,-,N/A,,Clear,360,2013-01-09 19:53:00
1:53 PM,35.1,12.0,39,30.30,10.0,Calm,Calm,-,N/A,,Clear,0,2013-01-09 20:53:00
2:53 PM,36.0,12.0,37,30.30,10.0,NW,4.6,-,N/A,,Clear,320,2013-01-09 21:53:00
3:53 PM,34.0,12.9,42,30.27,10.0,NW,3.5,-,N/A,,Clear,320,2013-01-09 22:53:00
4:53 PM,28.0,12.9,53,30.34,10.0,South,3.5,-,N/A,,Clear,190,2013-01-09 23:53:00
5:53 PM,19.9,10.9,68,30.37,10.0,South,6.9,-,N/A,,Clear,190,2013-01-10 00:53:00
6:53 PM,19.9,10.0,65,30.35,10.0,South,6.9,-,N/A,,Clear,190,2013-01-10 01:53:00
7:53 PM,17.1,8.1,68,30.33,10.0,South,4.6,-,N/A,,Clear,190,2013-01-10 02:53:00
8:53 PM,16.0,7.0,68,30.29,10.0,Calm,Calm,-,N/A,,Clear,0,2013-01-10 03:53:00
9:53 PM,12.9,5.0,71,30.27,10.0,SSW,5.8,-,N/A,,Clear,200,2013-01-10 04:53:00
10:53 PM,10.9,3.9,73,30.23,10.0,SSE,6.9,-,N/A,,Clear,160,2013-01-10 05:53:00
11:53 PM,10.9,3.0,70,30.17,10.0,South,3.5,-,N/A,,Clear,190,2013-01-10 06:53:00